Location: Copeville
(33.0796°N, 96.4155°W)
Time: 19:02:27
(UTC+00:00)

NOAA 19 - Pass Details

Date: 03 April 2023
Orbit: 840 x 859 km, 99.1° (Epoch: 31 May)

Event Time Altitude Azimuth Distance (km) Brightness Sun altitude
Exits shadow 02:42:56 23° 184° (S) 1,730 6.6 -24.2°
Maximum altitude 02:46:21 61° 258° (WSW) 956 5.6 -24.9°
Drops below altitude 10° 02:51:45 10° 339° (NNW) 2,466 8.2 -25.9°
Sets 02:54:09 0° 343° (NNW) 3,403 9.0 -26.4°
